Wind_Speed
26 27 27 27 27 26 25 24 22 22 22 22 21 21 20 19 18 17 17 16 16 16 17 17 18 18 18 17 17 17 17 17 17 16 14 13 12 11 11 12 13 15 17 19 20 20 21 22 23 24 25 27 28 29 30 30 31 32 33 33 34 34 34
28 29 29 30 30 29 27 26 24 24 24 23 22 22 22 21 20 18 17 17 16 16 16 16 17 18 18 19 19 19 19 19 19 18 17 16 15 13 12 12 13 15 18 20 21 21 22 23 24 25 26 28 29 30 31 31 32 33 34 34 35 35 35
30 30 31 32 32 31 29 28 27 27 26 25 25 25 24 23 21 20 19 19 17 17 17 17 17 18 19 20 20 21 21 21 21 20 20 19 18 16 14 14 14 16 19 21 22 22 23 25 26 27 28 29 30 31 32 33 33 34 35 35 36 36 36
33 33 33 34 34 33 32 30 30 30 30 29 28 27 26 25 24 23 22 22 21 20 20 21 21 21 21 21 22 22 22 23 23 23 22 22 21 19 17 16 16 17 20 22 22 23 25 26 27 28 29 30 31 32 33 34 35 36 36 37 37 37 38
35 35 35 35 36 36 35 33 33 33 33 31 30 30 29 28 27 26 25 25 24 23 23 24 24 24 24 24 23 23 24 24 25 25 24 23 23 22 20 19 19 19 21 23 24 24 26 28 29 30 31 32 32 33 34 35 36 37 39 39 39 40 41
37 37 36 37 37 38 37 36 36 36 35 34 33 32 32 31 30 29 28 28 27 26 26 27 26 27 27 27 26 25 26 26 26 26 25 25 25 24 23 22 22 21 23 25 26 26 28 29 30 31 32 33 33 34 35 37 38 39 41 41 42 43 44
40 39 38 38 39 39 39 39 39 38 38 37 36 35 35 35 34 32 30 30 29 28 29 29 28 28 29 29 29 28 27 27 27 27 27 27 26 25 25 25 25 25 26 28 28 29 30 31 31 33 34 34 34 35 37 38 39 41 42 43 45 45 46
43 42 41 40 40 41 40 40 40 40 39 38 38 38 38 38 36 34 33 32 31 31 31 30 29 30 30 30 30 29 29 28 29 29 29 29 28 27 27 27 28 28 30 31 31 31 32 33 33 34 35 36 36 37 38 39 41 42 43 45 46 47 47
46 45 45 43 42 42 42 42 42 40 39 39 39 40 40 40 38 37 35 33 33 33 32 31 31 31 31 31 30 30 30 30 31 31 32 32 31 29 29 29 29 30 32 33 33 33 35 35 36 36 36 37 37 38 39 41 42 43 44 46 47 49 49
49 48 48 48 46 44 43 43 42 41 41 41 41 41 41 41 40 39 37 36 36 35 33 33 33 33 32 32 31 30 31 31 31 32 33 33 32 30 30 30 31 31 34 35 35 36 37 38 38 38 38 39 39 40 41 42 43 44 46 47 48 49 50
51 51 51 51 50 48 46 45 43 43 43 43 43 43 42 42 41 40 39 38 38 37 35 35 35 35 33 33 32 31 31 31 32 33 33 33 32 31 31 32 32 33 35 37 37 38 39 40 40 40 40 40 41 41 42 43 44 45 47 48 49 50 51
54 53 52 53 53 52 50 48 46 46 45 45 44 44 43 43 42 42 41 40 39 38 37 37 37 36 35 34 33 33 33 33 33 34 34 33 33 33 33 34 34 35 37 39 39 40 41 42 41 41 41 42 42 43 43 44 46 47 49 50 51 52 53
58 56 55 55 56 55 53 52 51 50 48 47 46 45 45 44 43 43 42 41 41 40 38 38 38 38 37 35 35 35 35 35 35 36 35 35 35 35 36 37 37 38 39 40 41 42 43 43 43 42 42 43 44 44 45 46 47 49 51 52 53 54 55
60 60 59 58 57 56 55 54 55 54 52 51 49 48 47 46 45 44 43 43 42 41 40 40 40 40 39 38 38 38 37 37 38 38 38 38 38 38 39 39 39 40 41 42 44 44 45 45 45 44 44 45 45 46 47 48 49 52 53 54 55 56 56
64 63 62 62 61 60 58 57 56 56 55 55 53 52 51 50 49 47 46 45 45 44 43 43 42 42 42 42 41 40 40 39 40 40 40 40 40 41 42 42 42 42 43 45 47 46 46 47 47 46 46 46 47 48 49 50 52 54 55 56 57 57 58
66 67 66 65 64 63 62 61 59 58 57 57 56 55 55 53 53 51 49 48 48 47 47 46 45 45 45 45 44 43 43 42 43 43 42 42 43 43 44 44 44 44 45 48 49 48 48 48 48 48 48 48 50 51 51 53 54 56 58 58 58 58 60
62 67 68 68 67 66 66 65 63 61 59 58 58 58 58 58 57 56 54 52 51 50 50 49 49 48 48 48 47 46 46 45 45 45 45 45 45 46 46 46 46 47 48 50 51 50 50 51 51 50 49 50 51 53 54 55 56 58 59 60 59 60 62
52 59 66 70 70 68 67 68 67 65 62 61 60 60 60 61 61 60 58 56 55 55 53 52 52 51 50 50 49 48 48 48 47 47 47 47 48 48 49 48 48 49 50 52 53 53 52 52 52 51 50 52 54 55 56 57 58 60 61 61 61 62 64
44 49 56 63 68 70 70 70 70 69 67 65 64 63 63 64 63 63 62 60 59 58 56 55 55 54 53 53 52 51 50 50 49 50 50 51 50 51 51 50 51 51 52 54 56 55 54 54 53 52 53 55 57 57 58 59 60 61 62 62 63 64 65
43 45 48 53 59 66 71 73 73 73 72 70 68 67 67 66 65 65 65 63 61 60 58 59 58 57 56 55 55 54 53 52 52 53 54 55 53 52 52 52 53 54 55 57 58 57 56 56 56 55 56 58 59 60 60 60 61 63 63 63 64 65 67
45 46 47 49 52 58 65 71 75 76 76 74 72 71 70 69 68 68 67 65 63 61 61 61 60 59 59 58 57 57 56 56 55 56 57 58 57 55 54 54 55 57 57 59 60 59 59 59 58 58 59 60 61 62 63 63 64 65 64 65 66 67 68
47 48 49 51 52 54 59 65 70 75 77 78 77 75 73 72 72 71 70 68 66 64 64 63 62 61 61 60 59 59 59 59 60 60 60 60 59 57 56 56 58 60 61 62 63 62 61 61 60 60 61 62 63 65 65 66 66 66 67 68 68 68 69
47 49 51 52 53 54 56 59 63 69 75 78 79 78 76 76 76 76 74 72 69 68 68 66 64 62 62 62 61 61 62 62 63 63 62 61 59 59 59 60 61 62 63 64 64 63 63 63 62 62 63 64 65 66 68 68 69 69 70 71 71 71 71
49 50 51 53 54 55 56 57 59 63 69 74 77 79 79 80 80 79 78 75 73 72 71 69 66 65 64 64 64 64 65 65 65 65 63 61 60 60 62 63 64 64 65 66 66 65 65 65 64 64 65 66 67 69 70 70 71 72 73 74 74 73 72
51 51 51 52 54 55 57 58 58 59 63 67 71 76 80 82 82 82 80 78 76 75 74 72 69 69 68 68 68 69 68 67 67 66 64 63 62 62 65 67 67 66 67 68 67 67 68 67 66 65 66 68 69 70 72 73 74 75 76 76 75 74 74
52 52 51 51 53 55 57 58 59 59 60 61 64 70 75 79 82 82 82 80 79 78 76 75 73 74 74 73 72 72 72 70 69 68 66 65 65 66 68 70 69 68 69 70 70 70 70 69 68 68 68 69 70 72 73 75 75 76 77 79 78 76 73
53 52 51 51 52 53 56 57 59 59 60 60 62 64 68 72 76 79 81 82 81 80 79 79 79 79 79 77 76 76 76 74 72 71 69 68 68 70 72 73 72 72 72 72 71 71 71 70 70 69 69 70 71 72 74 77 78 79 79 75 70 64 59
55 53 52 52 52 53 55 56 57 58 59 60 60 62 64 66 69 73 78 81 81 81 81 82 83 83 83 81 80 79 80 78 75 75 73 72 72 74 75 76 76 75 75 73 72 72 72 71 71 71 70 71 71 73 77 78 75 69 61 53 49 48 49
57 56 54 54 54 55 55 56 57 57 58 59 60 61 62 63 65 67 71 75 77 80 82 84 85 86 86 85 83 82 82 81 79 78 77 76 76 78 79 80 79 78 76 74 73 73 72 72 73 73 71 71 71 74 76 70 57 44 38 39 42 46 48
59 59 58 57 57 57 57 58 58 58 59 60 60 61 62 63 63 63 64 66 70 73 77 81 84 86 87 87 86 85 85 84 82 80 78 79 81 83 83 82 81 79 77 76 75 74 73 74 76 76 72 69 70 71 66 52 38 34 35 39 45 48 50
62 61 61 60 59 59 59 60 60 60 60 61 61 62 63 63 63 62 61 62 64 66 70 74 79 83 85 87 87 87 87 87 85 83 83 84 86 87 86 84 81 79 77 76 75 75 75 77 78 77 72 67 64 63 58 47 41 42 43 44 49 55 57
65 64 63 62 62 61 61 62 62 62 61 61 61 62 62 62 62 61 60 60 61 62 65 68 73 77 81 83 85 86 87 88 87 87 88 88 89 90 89 84 80 78 77 76 76 77 78 79 78 76 73 69 64 65 67 65 61 58 55 55 59 62 63
68 66 65 63 63 62 62 62 64 64 63 62 62 62 61 60 59 59 59 59 59 60 62 64 67 71 74 77 80 82 84 86 87 89 90 90 92 92 89 84 81 79 78 77 78 80 81 78 75 73 75 74 70 69 72 75 73 68 64 64 65 66 67
68 67 66 64 63 63 62 61 63 64 65 64 63 62 61 59 57 57 57 57 58 59 60 62 63 65 68 71 73 75 79 82 85 87 88 89 89 88 86 83 80 78 78 78 80 82 81 76 72 70 71 71 71 71 72 71 68 64 63 65 67 68 70
68 66 65 63 62 62 62 61 62 63 64 64 63 62 61 59 58 57 57 57 58 58 59 60 61 62 64 66 68 70 74 77 80 82 83 83 82 83 83 81 78 75 74 75 77 80 79 73 69 69 70 69 69 68 65 59 57 58 61 64 67 68 71
67 65 64 63 63 63 63 63 63 63 64 64 63 62 62 61 59 58 57 57 56 56 56 57 58 59 59 61 64 67 71 73 74 74 75 75 75 76 76 75 73 70 67 67 70 75 76 71 66 65 66 65 63 60 55 51 53 58 62 64 67 70 73
67 66 66 66 65 65 64 64 64 64 64 63 63 63 63 62 60 59 58 57 56 55 53 53 53 54 54 56 58 61 63 64 64 65 65 66 66 66 67 67 64 59 57 58 64 72 77 78 74 69 66 63 60 55 52 54 57 60 64 67 70 73 76
67 67 68 67 66 65 65 65 65 65 64 64 63 63 63 62 60 59 59 58 56 54 52 51 50 49 48 47 48 50 52 54 55 56 55 54 53 53 55 56 55 51 47 49 55 64 76 82 79 71 67 66 62 56 55 58 61 63 67 70 72 75 78
Wind_Direction
212 209 206 205 204 205 205 204 202 202 204 204 204 208 213 219 223 226 228 231 234 237 240 241 244 246 249 252 255 258 263 268 273 279 284 290 296 305 316 322 323 319 316 316 319 325 326 326 328 331 332 334 335 336 338 339 341 343 345 346 346 346 345
218 215 211 210 210 209 208 206 205 207 210 210 209 212 215 220 224 227 231 234 236 242 247 250 251 250 250 251 253 257 261 265 270 275 281 285 290 297 306 313 317 315 313 314 317 323 325 325 327 329 330 331 332 334 335 336 338 340 342 343 343 343 342
223 220 218 216 215 215 212 210 210 212 214 215 215 217 220 224 228 230 234 238 241 245 251 256 259 258 255 252 252 256 261 265 269 274 279 283 288 293 299 305 310 311 310 311 315 321 323 324 326 327 328 329 330 332 333 334 335 337 338 340 340 340 340
228 225 223 221 220 220 218 215 216 218 219 220 221 224 226 229 232 235 237 241 244 246 250 254 258 260 260 258 255 256 259 264 269 273 278 283 288 293 296 300 303 306 308 308 313 319 321 322 324 325 326 327 327 329 331 332 333 334 335 336 336 336 337
233 230 227 226 224 224 223 221 221 222 224 225 227 229 231 233 237 239 240 243 244 246 248 251 255 258 259 260 258 257 259 262 267 271 277 283 289 295 298 299 299 302 304 306 311 315 317 319 321 323 324 324 325 327 329 331 332 332 333 333 332 332 332
234 234 232 230 229 228 227 227 226 227 228 228 230 232 235 237 239 241 243 245 245 246 248 250 252 255 257 259 259 259 259 261 265 270 276 282 288 294 298 298 298 300 301 304 309 313 314 315 317 319 320 321 323 326 328 329 330 331 331 331 330 330 329
233 235 235 234 233 232 231 230 230 231 231 231 232 234 237 239 240 242 244 245 245 245 247 249 251 253 255 257 258 259 260 262 266 269 273 279 284 289 294 296 297 299 299 302 307 309 310 312 313 315 317 318 321 324 326 327 328 329 329 330 329 329 329
234 235 236 236 236 236 235 234 234 233 233 234 236 237 239 241 241 241 242 243 244 245 247 248 250 252 254 255 257 258 260 263 266 269 272 276 280 283 287 291 295 298 298 301 305 307 307 308 310 312 314 316 319 322 324 325 326 327 328 328 328 327 327
233 236 237 237 237 237 238 239 238 237 237 238 238 239 241 243 243 242 242 242 243 245 247 248 249 251 253 254 256 257 259 262 266 270 273 276 278 279 283 288 293 296 298 300 303 304 305 306 308 310 312 315 317 320 321 323 324 325 325 325 325 325 325
231 234 237 238 238 238 239 241 242 241 241 241 240 240 242 244 245 245 244 244 244 246 248 249 250 251 252 254 255 256 257 261 266 271 275 278 281 282 284 288 291 294 296 298 300 302 302 303 306 308 311 313 315 317 319 320 321 321 321 322 322 322 322
233 233 235 237 239 238 238 240 242 243 243 243 243 243 243 245 247 247 247 247 247 248 249 250 251 251 252 254 255 257 259 261 265 270 274 278 282 284 285 287 289 291 293 295 298 299 300 301 304 306 308 311 312 314 316 317 317 317 318 318 318 319 319
237 237 236 237 239 240 239 239 240 241 243 244 245 245 246 247 248 249 249 249 249 250 250 251 252 252 253 254 256 259 260 262 265 269 273 276 279 281 283 284 287 289 291 293 295 296 297 299 302 304 306 308 309 311 312 313 314 314 314 314 315 316 317
239 240 240 240 240 240 241 241 241 240 241 243 245 246 247 248 248 250 250 250 250 251 252 253 253 254 255 256 257 259 260 262 265 268 272 274 276 278 280 282 285 287 289 291 292 293 295 298 299 301 303 305 306 307 309 310 311 311 311 312 313 315 316
238 240 241 242 243 242 242 242 243 243 242 242 243 245 247 248 249 250 251 252 252 252 252 253 254 256 258 258 259 260 261 264 266 269 271 274 276 277 279 281 284 286 288 289 290 291 293 295 297 299 300 302 303 304 305 307 308 308 309 310 312 313 315
238 238 239 240 242 244 243 242 242 244 245 245 245 245 245 247 248 250 250 252 253 254 254 254 255 257 259 260 260 261 263 264 266 269 272 274 275 277 279 281 283 285 286 287 288 289 291 293 295 297 298 298 299 301 303 304 306 307 308 309 310 312 313
237 237 238 239 239 241 243 243 242 242 243 246 247 248 247 247 247 248 249 250 252 254 255 256 257 257 258 260 261 262 264 265 266 268 271 273 275 276 278 280 282 284 285 285 286 287 288 290 292 294 295 296 297 299 301 303 304 305 306 307 308 310 312
238 238 238 239 239 240 242 244 244 242 242 243 245 247 249 249 248 248 248 248 250 252 254 255 257 258 259 260 261 262 264 265 266 269 270 272 274 275 276 278 281 283 284 284 284 284 286 289 290 291 292 294 296 298 299 301 302 303 305 306 307 309 311
242 240 239 240 241 241 242 244 245 245 243 243 243 244 246 248 249 249 249 248 248 249 251 253 255 257 259 260 261 262 264 265 267 269 269 270 271 273 275 277 280 281 282 282 282 283 285 286 286 288 291 293 294 296 297 299 300 302 304 305 306 308 311
246 244 243 241 241 242 242 243 245 246 245 244 243 244 245 246 248 249 249 249 249 249 250 251 253 254 256 258 259 261 262 264 266 267 268 269 269 271 273 276 278 279 279 280 280 281 282 283 284 287 289 291 293 294 296 298 299 301 303 304 305 307 310
251 248 245 243 241 241 241 242 243 244 245 245 244 244 245 246 247 248 249 249 250 250 251 252 252 253 254 255 257 259 261 262 264 265 267 267 268 270 273 274 275 276 277 278 277 278 279 282 284 286 288 290 293 294 296 298 299 300 301 302 304 306 308
253 251 248 245 242 241 240 241 241 242 243 244 244 244 245 246 247 248 249 250 250 250 251 252 253 253 254 255 257 259 260 261 262 263 265 266 268 269 271 272 273 274 275 275 275 276 279 282 284 286 288 291 293 294 296 298 298 299 299 301 303 304 306
253 251 250 248 245 243 241 240 241 242 242 243 243 243 244 246 247 247 248 249 250 250 250 251 252 253 254 255 256 258 259 260 261 262 263 265 267 269 270 271 272 272 273 273 275 277 279 282 284 286 289 291 293 294 296 297 297 297 298 300 301 303 304
252 250 249 249 248 247 245 242 242 242 242 243 243 243 243 244 246 247 247 247 248 249 250 251 251 252 254 255 255 256 258 259 260 260 261 263 265 268 269 270 270 271 272 273 275 278 280 282 284 287 289 291 292 294 295 295 296 297 298 299 300 301 302
252 250 249 249 250 250 249 247 245 244 244 244 244 244 244 244 245 246 247 247 248 248 249 251 252 252 253 254 255 255 256 257 258 260 261 263 264 266 268 268 269 270 271 273 275 278 279 281 284 286 288 290 292 293 294 295 296 297 298 298 299 300 300
251 251 250 250 251 251 251 250 248 247 246 246 245 245 244 245 246 247 248 248 249 249 250 250 251 252 253 253 254 255 255 256 258 260 261 263 264 265 267 268 268 269 271 273 275 277 278 281 284 286 288 290 292 293 294 295 297 298 297 297 298 299 300
250 250 251 253 253 253 253 253 251 250 248 248 247 246 245 245 246 246 247 248 249 250 251 251 252 252 252 253 253 255 256 257 258 259 261 263 264 265 266 267 268 270 271 273 274 277 279 282 284 286 289 291 293 294 296 297 297 297 297 297 299 299 300
251 250 251 253 254 255 255 255 255 255 253 251 249 248 248 247 246 247 247 248 248 249 250 251 252 252 253 253 253 255 256 256 257 259 260 262 263 265 266 267 268 269 270 272 275 278 280 282 284 287 290 292 294 296 296 297 298 298 299 299 301 302 301
253 252 251 252 253 254 255 255 256 256 257 256 254 252 250 249 247 247 247 248 248 248 249 250 251 252 253 254 254 255 256 257 258 259 260 261 262 264 265 266 268 269 271 274 276 278 280 283 285 288 291 293 294 296 297 299 301 302 302 304 306 305 302
257 255 254 253 252 253 254 254 254 254 255 257 257 256 254 253 250 248 247 248 248 249 249 250 251 252 254 255 255 256 257 258 259 259 259 260 262 263 263 265 267 269 272 274 276 279 282 284 286 288 289 291 294 296 298 301 302 302 304 308 309 304 301
259 259 257 255 254 253 253 253 253 252 252 253 254 255 255 255 254 252 251 250 249 249 249 250 251 252 253 254 255 255 256 258 259 258 258 260 262 262 262 263 266 269 271 274 276 279 282 283 284 285 286 291 296 297 298 298 295 291 297 304 305 303 301
258 259 259 259 258 256 255 255 254 253 252 252 252 252 253 253 253 254 253 253 252 251 250 249 250 251 252 253 254 255 256 257 258 258 259 260 262 262 262 263 265 268 271 274 276 278 280 280 281 282 285 290 292 292 290 288 283 283 290 295 297 300 302
257 258 259 260 260 260 260 259 258 255 254 253 252 252 253 253 253 252 252 252 253 252 251 251 250 251 251 252 252 253 254 255 256 257 259 260 261 262 263 264 266 269 271 273 275 276 276 277 280 283 285 286 285 283 282 281 280 280 282 285 289 294 298
256 257 258 259 260 260 261 262 262 260 258 256 255 255 255 255 255 254 252 251 251 251 251 251 250 251 251 252 252 253 254 255 255 256 257 258 259 261 264 266 268 270 272 274 274 275 275 278 282 286 286 285 284 281 279 280 280 278 276 278 284 289 293
255 257 259 259 259 259 259 260 261 261 261 260 259 259 259 259 258 256 254 251 250 249 249 249 250 251 252 252 252 253 253 254 255 256 256 257 258 261 264 266 268 270 271 273 275 276 277 278 281 284 285 285 283 280 278 279 278 274 272 275 281 286 290
254 256 258 257 257 258 258 258 258 259 260 260 260 261 262 261 260 258 255 252 250 249 249 250 250 251 252 253 253 253 253 253 254 256 257 259 260 262 264 266 268 268 270 273 277 279 280 280 279 278 279 280 281 279 277 274 269 264 266 273 279 284 289
252 253 254 254 256 257 257 257 257 258 258 259 260 261 262 262 262 261 259 257 255 253 251 251 252 253 254 254 254 254 254 255 256 257 259 260 261 262 263 266 268 270 272 275 278 279 281 281 279 275 274 276 278 276 270 264 260 260 264 271 276 281 286
250 251 252 253 255 255 255 256 257 257 258 258 259 260 260 261 262 262 262 261 260 258 256 256 256 256 254 253 254 255 256 258 259 260 260 261 262 262 263 265 268 270 272 272 270 268 270 271 269 267 267 270 275 273 263 258 259 262 264 269 274 278 283
249 249 251 253 253 252 252 253 254 256 257 257 257 258 258 259 260 260 261 262 262 262 262 261 259 258 256 255 255 255 256 258 259 259 260 262 263 263 263 263 264 263 268 275 273 264 261 262 260 259 262 267 270 269 262 259 262 264 266 269 274 278 281
Height
10939 10941 10943 10945 10947 10948 10950 10952 10954 10956 10957 10958 10960 10962 10963 10965 10966 10967 10968 10969 10970 10971 10972 10973 10973 10974 10974 10974 10974 10974 10975 10975 10975 10975 10976 10976 10976 10976 10976 10976 10976 10975 10974 10973 10973 10973 10972 10971 10971 10970 10969 10969 10967 10966 10965 10964 10963 10961 10960 10958 10957 10955 10953
10937 10939 10941 10943 10944 10946 10948 10950 10952 10954 10955 10956 10958 10959 10960 10962 10964 10965 10966 10967 10968 10969 10970 10971 10972 10972 10973 10973 10973 10973 10973 10973 10973 10974 10974 10975 10975 10975 10974 10974 10974 10973 10972 10971 10971 10971 10970 10969 10969 10968 10968 10967 10966 10965 10963 10962 10961 10959 10958 10957 10955 10953 10951
10935 10936 10938 10940 10942 10943 10946 10948 10950 10951 10952 10954 10955 10955 10957 10959 10961 10963 10964 10965 10966 10967 10968 10969 10969 10970 10970 10971 10971 10971 10971 10971 10971 10972 10972 10973 10973 10973 10973 10973 10972 10972 10970 10969 10969 10969 10968 10967 10966 10966 10965 10964 10964 10963 10961 10960 10959 10957 10956 10954 10953 10951 10949
10931 10933 10935 10937 10939 10941 10943 10945 10947 10948 10949 10950 10952 10953 10954 10956 10958 10960 10962 10962 10963 10964 10965 10966 10966 10967 10968 10968 10969 10969 10969 10969 10969 10970 10970 10971 10971 10972 10972 10971 10970 10970 10968 10967 10967 10967 10966 10965 10964 10963 10963 10962 10961 10960 10959 10957 10956 10954 10953 10951 10950 10948 10946
10928 10930 10932 10934 10936 10938 10940 10942 10944 10945 10947 10948 10949 10950 10951 10953 10955 10957 10958 10959 10960 10961 10962 10963 10963 10964 10965 10965 10966 10967 10967 10967 10967 10967 10968 10968 10969 10969 10970 10969 10968 10967 10966 10965 10965 10964 10963 10962 10961 10961 10960 10959 10958 10957 10956 10955 10953 10951 10949 10948 10947 10945 10943
10924 10926 10928 10930 10932 10934 10936 10939 10941 10942 10944 10945 10946 10947 10948 10950 10951 10953 10955 10956 10957 10958 10958 10959 10960 10961 10962 10963 10963 10964 10964 10964 10964 10964 10965 10966 10966 10967 10968 10967 10966 10965 10964 10962 10962 10962 10961 10960 10959 10958 10957 10956 10955 10954 10953 10951 10949 10947 10945 10944 10942 10941 10939
10921 10923 10925 10927 10929 10931 10933 10935 10937 10939 10941 10942 10944 10945 10945 10946 10948 10950 10951 10952 10953 10954 10955 10956 10957 10957 10958 10959 10960 10961 10962 10962 10962 10962 10962 10963 10964 10965 10965 10964 10964 10963 10961 10960 10960 10959 10958 10957 10956 10955 10954 10953 10952 10951 10949 10948 10946 10944 10941 10939 10938 10936 10934
10918 10919 10921 10923 10925 10927 10929 10931 10933 10935 10938 10939 10941 10942 10942 10943 10944 10946 10948 10949 10950 10950 10951 10952 10953 10954 10955 10956 10957 10958 10959 10959 10959 10959 10959 10960 10961 10962 10962 10962 10961 10960 10958 10957 10957 10956 10954 10953 10952 10952 10950 10949 10948 10947 10946 10944 10942 10940 10938 10936 10933 10931 10929
10914 10916 10917 10919 10921 10923 10925 10927 10929 10932 10935 10936 10937 10938 10938 10939 10941 10942 10944 10945 10946 10946 10947 10949 10950 10950 10951 10952 10954 10955 10955 10956 10956 10956 10956 10957 10958 10959 10959 10958 10958 10956 10955 10954 10953 10952 10951 10949 10948 10947 10946 10945 10944 10943 10942 10940 10939 10937 10935 10933 10930 10927 10925
10909 10911 10913 10914 10917 10919 10921 10923 10926 10929 10931 10932 10933 10934 10935 10936 10937 10939 10941 10942 10942 10943 10944 10945 10946 10946 10948 10949 10950 10951 10952 10953 10953 10953 10954 10954 10955 10956 10956 10955 10954 10953 10951 10950 10950 10949 10947 10945 10944 10943 10942 10941 10940 10939 10938 10937 10935 10933 10931 10930 10927 10925 10922
10905 10906 10908 10910 10912 10915 10917 10920 10922 10925 10926 10927 10929 10930 10932 10933 10934 10935 10937 10938 10939 10940 10941 10942 10942 10943 10944 10945 10946 10947 10948 10949 10950 10950 10951 10951 10952 10952 10952 10951 10950 10949 10947 10946 10945 10945 10943 10942 10941 10939 10938 10936 10935 10934 10933 10932 10931 10929 10927 10926 10924 10921 10919
10900 10902 10904 10906 10907 10910 10913 10916 10919 10920 10921 10923 10925 10926 10928 10929 10930 10931 10933 10934 10935 10936 10937 10938 10938 10939 10940 10942 10943 10943 10944 10945 10946 10946 10947 10948 10948 10948 10947 10946 10945 10945 10943 10942 10941 10940 10938 10937 10937 10935 10933 10932 10931 10929 10929 10928 10926 10924 10922 10921 10919 10917 10914
10896 10897 10900 10901 10902 10906 10909 10912 10914 10915 10917 10919 10920 10922 10923 10924 10926 10927 10929 10930 10931 10932 10933 10934 10935 10935 10936 10938 10939 10940 10940 10941 10942 10942 10943 10943 10943 10943 10942 10941 10941 10940 10939 10937 10936 10935 10934 10932 10932 10931 10929 10927 10926 10924 10923 10923 10921 10919 10917 10915 10913 10911 10909
10892 10893 10895 10896 10898 10900 10904 10907 10908 10910 10913 10914 10916 10917 10918 10920 10921 10923 10925 10926 10927 10928 10929 10930 10931 10932 10932 10934 10935 10936 10937 10937 10938 10938 10938 10938 10938 10938 10937 10936 10936 10935 10934 10933 10931 10930 10929 10927 10926 10925 10924 10922 10920 10919 10918 10917 10916 10913 10911 10909 10907 10905 10903
10885 10886 10888 10890 10892 10894 10897 10900 10903 10905 10907 10909 10911 10913 10914 10915 10917 10919 10921 10921 10922 10924 10924 10925 10927 10928 10928 10929 10930 10931 10933 10934 10933 10933 10932 10933 10933 10932 10931 10931 10930 10930 10929 10927 10925 10925 10923 10922 10921 10919 10918 10916 10914 10913 10912 10911 10910 10907 10905 10903 10901 10899 10897
10875 10878 10881 10883 10886 10887 10889 10891 10895 10899 10901 10903 10906 10908 10909 10910 10911 10913 10915 10917 10918 10919 10920 10921 10923 10924 10924 10924 10925 10927 10928 10929 10928 10927 10927 10927 10926 10926 10926 10925 10925 10925 10924 10921 10919 10919 10918 10916 10915 10913 10912 10911 10909 10907 10906 10905 10903 10901 10898 10896 10895 10893 10891
10868 10871 10874 10876 10879 10882 10883 10884 10887 10892 10896 10898 10900 10901 10902 10903 10905 10907 10909 10912 10913 10913 10915 10916 10917 10919 10919 10919 10920 10922 10923 10923 10923 10922 10921 10921 10920 10920 10919 10919 10920 10919 10918 10915 10913 10912 10912 10910 10908 10907 10906 10905 10904 10902 10901 10899 10898 10895 10893 10890 10889 10887 10885
10862 10865 10867 10869 10873 10877 10879 10879 10880 10884 10888 10891 10893 10894 10895 10895 10897 10899 10902 10905 10906 10907 10910 10912 10912 10913 10914 10914 10915 10916 10916 10917 10917 10916 10915 10914 10913 10913 10913 10913 10914 10913 10911 10909 10906 10905 10905 10904 10902 10902 10901 10900 10898 10897 10895 10894 10892 10890 10887 10885 10883 10881 10879
10857 10859 10860 10862 10866 10869 10871 10873 10874 10876 10879 10882 10885 10887 10887 10887 10889 10891 10893 10896 10898 10901 10905 10906 10906 10908 10909 10908 10909 10910 10910 10910 10911 10909 10907 10907 10907 10907 10907 10908 10907 10906 10904 10902 10899 10898 10898 10897 10896 10897 10896 10894 10893 10891 10890 10889 10887 10885 10883 10880 10878 10876 10874
10850 10851 10852 10854 10856 10858 10861 10863 10864 10866 10869 10872 10876 10877 10878 10880 10882 10883 10885 10888 10892 10896 10898 10899 10899 10901 10902 10903 10903 10903 10904 10904 10904 10902 10899 10899 10900 10901 10902 10902 10900 10899 10897 10894 10892 10891 10891 10891 10891 10891 10890 10889 10887 10886 10885 10884 10883 10880 10878 10876 10873 10871 10869
10842 10843 10844 10846 10847 10848 10850 10851 10854 10857 10859 10862 10865 10867 10869 10872 10874 10875 10877 10881 10885 10888 10890 10890 10892 10894 10895 10896 10896 10896 10896 10896 10896 10894 10892 10892 10893 10895 10896 10895 10893 10891 10889 10887 10885 10885 10886 10886 10886 10885 10884 10884 10882 10881 10879 10879 10877 10875 10872 10870 10868 10866 10864
10835 10836 10837 10838 10839 10840 10842 10844 10846 10848 10850 10852 10855 10859 10862 10864 10865 10866 10869 10873 10876 10879 10880 10881 10884 10886 10887 10888 10889 10888 10888 10887 10887 10886 10885 10885 10887 10888 10889 10888 10885 10883 10882 10880 10879 10880 10881 10880 10880 10879 10878 10878 10876 10875 10873 10872 10870 10868 10866 10864 10861 10860 10858
10828 10829 10830 10831 10832 10834 10835 10838 10840 10840 10841 10843 10847 10851 10855 10855 10855 10856 10859 10863 10867 10869 10870 10873 10877 10879 10879 10880 10881 10880 10880 10878 10878 10878 10878 10880 10881 10882 10881 10879 10877 10876 10876 10874 10874 10876 10876 10875 10874 10874 10873 10871 10870 10869 10867 10864 10863 10861 10859 10856 10854 10853 10852
10820 10822 10824 10825 10826 10828 10829 10831 10833 10834 10834 10836 10840 10844 10846 10847 10847 10848 10851 10855 10859 10861 10862 10866 10869 10871 10871 10871 10872 10871 10871 10870 10870 10870 10872 10874 10876 10875 10873 10871 10870 10870 10870 10869 10870 10871 10870 10868 10869 10869 10868 10866 10864 10862 10859 10857 10855 10853 10851 10848 10846 10846 10844
10814 10815 10817 10819 10820 10821 10822 10823 10825 10827 10828 10830 10832 10834 10836 10837 10838 10840 10844 10848 10851 10852 10855 10859 10862 10862 10862 10862 10862 10862 10862 10863 10864 10865 10866 10868 10869 10868 10866 10863 10863 10864 10864 10864 10864 10863 10862 10863 10864 10863 10862 10860 10857 10855 10853 10850 10848 10846 10843 10840 10839 10838 10836
10808 10810 10811 10813 10814 10815 10815 10816 10818 10820 10822 10824 10825 10824 10826 10829 10831 10834 10838 10840 10843 10845 10848 10851 10853 10851 10850 10852 10853 10853 10854 10856 10857 10858 10860 10861 10861 10860 10857 10855 10856 10858 10857 10856 10857 10857 10856 10857 10858 10856 10855 10853 10850 10848 10845 10843 10840 10838 10835 10832 10830 10830 10829
10801 10804 10806 10807 10808 10809 10809 10809 10811 10812 10813 10816 10817 10818 10819 10822 10825 10828 10829 10831 10835 10839 10841 10841 10841 10839 10839 10842 10844 10845 10844 10847 10849 10851 10853 10854 10853 10851 10849 10848 10849 10850 10849 10849 10851 10851 10851 10850 10849 10848 10847 10845 10843 10840 10837 10835 10832 10829 10826 10824 10823 10823 10822
10793 10797 10800 10801 10801 10802 10802 10803 10804 10805 10805 10807 10809 10811 10812 10815 10818 10820 10820 10823 10827 10831 10832 10831 10830 10830 10830 10833 10836 10837 10836 10838 10842 10843 10844 10846 10846 10844 10842 10841 10840 10841 10842 10844 10846 10844 10844 10843 10842 10841 10840 10838 10835 10832 10828 10825 10824 10821 10819 10818 10818 10817 10816
10784 10787 10791 10793 10794 10795 10795 10796 10797 10799 10799 10799 10800 10802 10803 10806 10809 10811 10813 10816 10820 10822 10823 10823 10822 10822 10822 10824 10828 10830 10829 10830 10833 10834 10835 10836 10836 10835 10834 10833 10833 10834 10836 10838 10838 10837 10837 10836 10834 10833 10832 10830 10828 10824 10819 10818 10818 10815 10814 10813 10813 10813 10812
10775 10777 10780 10782 10784 10786 10787 10788 10790 10791 10792 10793 10793 10793 10794 10796 10799 10802 10806 10809 10811 10813 10815 10814 10813 10813 10814 10815 10818 10820 10820 10821 10823 10825 10826 10826 10824 10823 10824 10825 10826 10828 10830 10831 10831 10830 10831 10829 10826 10824 10825 10825 10822 10815 10812 10813 10812 10809 10807 10808 10808 10808 10807
10767 10768 10769 10771 10773 10776 10778 10779 10781 10783 10784 10785 10785 10786 10787 10788 10791 10795 10798 10799 10801 10803 10805 10805 10803 10804 10805 10806 10808 10810 10811 10812 10814 10815 10817 10816 10813 10812 10814 10817 10820 10822 10823 10824 10824 10824 10823 10821 10818 10817 10819 10821 10817 10809 10805 10807 10806 10802 10800 10801 10801 10802 10801
10757 10759 10761 10762 10763 10765 10767 10768 10771 10774 10775 10776 10777 10778 10780 10782 10785 10788 10790 10792 10793 10794 10795 10795 10795 10795 10795 10796 10798 10800 10801 10802 10804 10806 10806 10806 10804 10802 10804 10810 10815 10817 10817 10818 10819 10817 10815 10812 10811 10812 10813 10815 10813 10807 10802 10802 10801 10797 10795 10795 10795 10794 10793
10748 10750 10752 10754 10755 10756 10757 10758 10759 10762 10765 10768 10769 10771 10773 10775 10778 10780 10783 10785 10786 10787 10786 10786 10787 10787 10787 10789 10791 10792 10792 10793 10794 10795 10794 10794 10794 10795 10798 10804 10809 10810 10812 10813 10812 10809 10807 10807 10809 10809 10806 10805 10806 10803 10798 10797 10797 10794 10792 10790 10789 10787 10785
10740 10742 10743 10745 10747 10748 10750 10751 10751 10752 10755 10758 10760 10763 10765 10768 10770 10771 10773 10775 10777 10778 10778 10778 10779 10779 10780 10781 10783 10784 10784 10784 10784 10784 10785 10786 10788 10791 10794 10798 10802 10804 10806 10805 10803 10801 10801 10804 10807 10807 10802 10798 10798 10796 10792 10791 10791 10790 10788 10786 10783 10781 10779
10732 10734 10735 10737 10738 10739 10742 10744 10745 10746 10747 10749 10752 10755 10757 10758 10760 10761 10762 10764 10766 10768 10769 10769 10770 10770 10771 10772 10774 10775 10775 10775 10775 10777 10779 10783 10786 10788 10789 10791 10793 10796 10798 10799 10797 10795 10794 10798 10802 10801 10797 10794 10791 10787 10786 10785 10784 10783 10782 10780 10777 10775 10772
10724 10726 10728 10729 10730 10731 10733 10735 10737 10739 10741 10742 10745 10747 10748 10749 10750 10751 10752 10754 10756 10758 10760 10761 10762 10763 10764 10765 10766 10766 10766 10767 10769 10772 10775 10778 10781 10784 10785 10786 10788 10791 10794 10796 10797 10793 10790 10793 10797 10795 10790 10787 10785 10782 10780 10779 10777 10776 10774 10773 10770 10768 10766
10716 10718 10719 10721 10722 10724 10725 10727 10729 10731 10733 10736 10738 10739 10739 10740 10741 10742 10743 10744 10746 10748 10750 10752 10754 10755 10756 10757 10758 10759 10761 10763 10765 10767 10770 10773 10775 10778 10780 10783 10784 10786 10788 10790 10793 10793 10791 10791 10791 10789 10784 10780 10778 10777 10774 10772 10770 10769 10768 10766 10764 10762 10760
10708 10710 10711 10712 10714 10715 10717 10719 10721 10723 10725 10728 10729 10730 10731 10731 10732 10734 10735 10735 10737 10739 10741 10743 10745 10746 10747 10749 10750 10752 10754 10756 10758 10760 10763 10767 10769 10772 10776 10778 10779 10780 10780 10780 10783 10784 10782 10780 10781 10781 10778 10774 10771 10769 10767 10765 10764 10764 10762 10760 10760 10759 10757